DW2150 Weather Reports


time (UTC)temp
C
wind
direction
speed
KPH
gust
KPH
rain 1hr
cm
rain 24hr
cm
rain mn
cm
humidity
%
barometer
mb
20260502185956 23 1 3.2 14.5 0.00 4.50 0.03 58 1020.0
20260502185453 23 60 3.2 14.5 0.00 4.50 0.03 59 1020.0
20260502184949 23 46 4.8 14.5 0.00 4.50 0.03 60 1020.0
20260502184446 23 47 6.4 17.7 0.00 4.50 0.03 58 1020.0
20260502183943 23 65 6.4 17.7 0.00 4.50 0.03 61 1020.0
20260502183440 22 67 3.2 17.7 0.03 4.50 0.03 64 1020.0
20260502182905 22 68 8.0 17.7 0.03 4.50 0.03 62 1020.3
20260502182402 22 49 4.8 14.5 0.03 4.50 0.03 64 1020.3
20260502181859 22 60 4.8 12.9 0.03 4.50 0.03 64 1020.3
20260502181356 22 74 4.8 14.5 0.03 4.52 0.03 64 1020.3
20260502180853 22 80 3.2 14.5 0.03 4.55 0.03 62 1020.3
20260502180350 22 5 3.2 16.1 0.03 4.60 0.03 62 1020.3
20260502170301 21 87 3.2 17.7 0.00 6.30 0.00 69 1020.7
20260502164217 21 47 3.2 19.3 0.00 6.78 0.00 69 1020.7
20260502163714 20 41 4.8 19.3 0.00 6.78 0.00 72 1020.7
20260502163139 20 71 3.2 19.3 0.00 6.78 0.00 71 1020.3
20260502162637 20 47 4.8 19.3 0.00 6.78 0.00 69 1020.3
20260502162134 20 33 3.2 17.7 0.00 6.78 0.00 75 1020.3
20260502161630 20 84 4.8 17.7 0.00 6.78 0.00 72 1020.7
20260502161127 20 57 4.8 17.7 0.00 6.78 0.00 76 1020.3
20260502160624 20 60 6.4 17.7 0.00 6.78 0.00 72 1020.3
20260502160121 20 39 6.4 17.7 0.00 6.81 0.00 74 1020.3
20260502152023 18 50 4.8 22.5 0.00 6.91 0.00 79 1020.3
20260502151449 18 44 8.0 22.5 0.00 6.91 0.00 78 1020.3
20260502150946 18 46 4.8 16.1 0.00 6.91 0.00 80 1020.3
20260502150443 18 47 6.4 16.1 0.00 6.91 0.00 80 1020.3
20260502130626 14 72 3.2 11.3 0.00 7.11 0.00 91 1019.3
20260502130123 13 69 3.2 11.3 0.00 7.11 0.00 91 1019.3
20260502123606 13 45 1.6 16.1 0.00 7.14 0.00 91 1018.6
20260502123103 13 17 4.8 16.1 0.00 7.16 0.00 91 1018.6
20260502122600 13 43 3.2 16.1 0.00 7.21 0.00 91 1018.6
20260502122057 13 57 3.2 12.9 0.00 7.24 0.00 92 1018.6
20260502121554 12 16 4.8 12.9 0.00 7.24 0.00 92 1018.6
20260502121051 12 111 0.0 11.3 0.00 7.24 0.00 92 1018.3
20260502120548 12 33 3.2 12.9 0.00 7.24 0.00 92 1018.3
20260502115521 12 138 3.2 12.9 0.00 7.24 0.00 91 1018.3
20260502115018 12 38 4.8 11.3 0.00 7.24 0.00 91 1018.3
20260502114513 12 48 4.8 11.3 0.00 7.24 0.00 91 1018.3
20260502114011 12 25 3.2 17.7 0.00 7.24 0.00 91 1017.9
20260502113508 12 99 0.0 17.7 0.00 7.24 0.00 91 1017.9
20260502113004 12 31 3.2 17.7 0.00 7.24 0.00 90 1017.9
20260502112501 12 52 4.8 17.7 0.00 7.24 0.00 90 1017.9
20260502111958 12 31 4.8 14.5 0.00 7.24 0.00 90 1017.9
20260502111454 12 39 4.8 12.9 0.00 7.24 0.00 90 1017.9
20260502110951 12 80 3.2 12.9 0.00 7.24 0.00 90 1017.9
20260502110448 12 42 3.2 12.9 0.00 7.24 0.00 90 1017.6
20260502105926 12 38 3.2 12.9 0.00 7.24 0.00 90 1017.6
20260502105422 12 41 3.2 12.9 0.00 7.24 0.00 90 1017.6
20260502104920 12 39 3.2 12.9 0.00 7.24 0.00 90 1017.6
20260502104416 12 17 3.2 12.9 0.00 7.24 0.00 90 1017.6
20260502103913 12 40 1.6 11.3 0.00 7.24 0.00 90 1017.3
20260502103410 12 26 3.2 9.7 0.00 7.24 0.00 90 1017.3
20260502102906 12 5 1.6 9.7 0.00 7.24 0.00 90 1016.9
20260502102403 12 41 3.2 11.3 0.00 7.24 0.00 89 1016.9
20260502101900 12 33 3.2 14.5 0.00 7.24 0.00 89 1016.9
20260502101357 12 69 1.6 14.5 0.00 7.24 0.00 89 1016.9
20260502100854 12 51 3.2 14.5 0.00 7.24 0.00 90 1016.6
20260502100320 12 42 8.0 14.5 0.00 7.24 0.00 90 1016.6
20260502091229 12 66 6.4 14.5 0.00 7.26 0.00 90 1015.9
20260502090707 12 31 4.8 14.5 0.00 7.26 0.00 90 1015.9
20260502090204 13 51 6.4 14.5 0.00 7.26 0.00 90 1015.9
20260502071049 13 61 4.8 16.1 0.00 7.26 0.00 93 1015.9
20260502070527 13 39 4.8 16.1 0.00 7.26 0.00 93 1015.9
20260502070024 13 29 8.0 16.1 0.00 7.26 0.00 93 1015.6
20260502065521 13 45 3.2 14.5 0.00 7.26 0.00 93 1015.6
20260502065018 13 44 6.4 14.5 0.00 7.26 0.00 92 1015.6
20260502064443 13 33 4.8 19.3 0.00 7.26 0.00 92 1015.6
20260502063940 13 66 0.0 20.9 0.00 7.26 0.00 92 1015.6
20260502063436 13 27 6.4 20.9 0.00 7.26 0.00 92 1015.6
20260502062901 13 42 8.0 20.9 0.00 7.26 0.00 92 1015.6
20260502062358 13 34 11.3 20.9 0.00 7.26 0.00 92 1015.6
20260502061855 13 32 6.4 22.5 0.00 7.26 0.00 92 1015.6
20260502061352 13 69 4.8 30.6 0.00 7.26 0.00 92 1015.6
20260502060849 13 59 4.8 30.6 0.00 7.26 0.00 93 1015.2
20260502060330 13 44 6.4 30.6 0.00 7.26 0.00 93 1015.6
20260502055827 13 39 6.4 30.6 0.00 7.26 0.00 93 1015.6
20260502055324 13 57 6.4 20.9 0.00 7.26 0.00 93 1015.6
20260502054821 13 51 8.0 17.7 0.00 7.26 0.00 93 1015.6
20260502054302 13 52 6.4 17.7 0.00 7.34 0.00 93 1015.6
20260502053759 13 53 8.0 19.3 0.00 7.34 0.00 93 1015.9
20260502053254 13 40 6.4 19.3 0.00 7.37 0.00 93 1015.9
20260502052752 13 45 6.4 19.3 0.00 7.39 0.00 93 1015.9
20260502052248 13 53 8.0 24.1 0.00 7.47 0.00 94 1015.9
20260502051745 13 49 6.4 24.1 0.00 7.59 7.52 93 1015.6
20260502051210 13 52 6.4 24.1 0.00 7.65 7.52 94 1015.9
20260502050707 13 49 9.7 24.1 0.00 7.67 7.52 94 1015.9
20260502050133 13 60 3.2 17.7 0.00 7.70 7.52 94 1015.9
20260502045630 13 34 6.4 17.7 0.03 7.70 7.52 94 1015.9
20260502045126 13 49 6.4 17.7 0.03 7.70 7.52 94 1015.9
20260502044624 13 42 4.8 17.7 0.03 7.70 7.52 94 1015.9
20260502044120 13 36 8.0 14.5 0.03 7.70 7.52 94 1015.9
20260502043615 13 57 4.8 14.5 0.05 7.70 7.52 94 1015.9
20260502043112 13 50 4.8 14.5 0.05 7.70 7.52 95 1015.9
20260502042550 13 51 4.8 14.5 0.05 7.72 7.52 94 1015.6
20260502042046 13 237 4.8 11.3 0.08 7.72 7.52 94 1015.6
20260502041542 13 85 3.2 11.3 0.08 7.72 7.52 94 1015.6
20260502040949 13 24 4.8 11.3 0.10 7.75 7.52 94 1015.6
20260502040447 13 69 4.8 9.7 0.13 7.75 7.52 94 1015.6
20260502035854 13 49 3.2 11.3 0.10 7.72 7.49 94 1015.2
20260502035351 14 232 1.6 11.3 0.13 7.72 7.49 95 1014.9
20260502034847 14 81 3.2 22.5 0.13 7.72 7.49 95 1014.9
20260502034344 14 287 3.2 22.5 0.15 7.72 7.49 95 1015.2
20260502033841 13 59 3.2 22.5 0.18 7.72 7.49 95 1014.9
20260502033307 13 43 4.8 22.5 0.15 7.70 7.47 94 1014.6
20260502032804 14 57 8.0 17.7 0.18 7.70 7.47 95 1014.2
20260502032301 14 42 6.4 16.1 0.18 7.67 7.47 95 1014.2
20260502031755 14 63 6.4 16.1 0.20 7.67 7.44 95 1014.2
20260502031252 14 37 6.4 20.9 0.18 7.65 7.42 95 1013.9
20260502030730 15 81 4.8 20.9 0.20 7.65 7.42 95 1013.5
20260502030156 15 52 3.2 20.9 0.20 7.62 7.39 95 1013.5
20260502025653 15 45 8.0 14.5 0.23 7.62 7.39 95 1013.5
20260502025150 15 143 3.2 14.5 0.23 7.59 7.37 95 1013.9
20260502024647 15 217 3.2 16.1 0.23 7.57 7.34 95 1013.9
20260502024144 15 70 4.8 16.1 0.25 7.57 7.34 95 1013.9
20260502023641 15 75 3.2 16.1 0.28 7.54 7.32 95 1013.9
20260502023138 15 65 4.8 16.1 0.28 7.52 7.29 95 1013.9
20260502022635 15 20 3.2 9.7 0.30 7.52 7.29 95 1013.9
20260502022132 15 261 3.2 9.7 0.33 7.49 7.26 95 1013.9
20260502021629 15 82 4.8 11.3 0.33 7.47 7.24 95 1013.5
20260502021125 15 89 3.2 11.3 0.33 7.44 7.21 95 1013.9
20260502020622 15 73 3.2 11.3 0.38 7.44 7.21 95 1013.9
20260502020101 15 52 3.2 12.9 0.38 7.42 7.19 95 1013.5
20260502015558 15 131 3.2 12.9 0.41 7.39 7.16 95 1013.5
20260502015055 15 283 3.2 12.9 0.43 7.37 7.14 95 1013.2
20260502014552 15 88 3.2 12.9 0.43 7.34 7.11 95 1013.2
20260502014049 15 22 0.0 9.7 0.41 7.29 7.06 95 1013.2
20260502013546 15 319 1.6 9.7 0.43 7.26 7.04 95 1012.9
20260502013024 15 125 1.6 9.7 0.43 7.24 7.01 95 1012.9
20260502012521 15 248 3.2 11.3 0.41 7.19 6.96 95 1012.9
20260502012018 15 323 3.2 17.7 0.43 7.16 6.93 95 1012.5
20260502011500 15 68 1.6 17.7 0.43 7.14 6.91 95 1012.2
20260502010938 15 46 4.8 17.7 0.38 7.11 6.86 95 1011.5
20260502010333 15 40 6.4 17.7 0.36 7.06 6.81 95 1011.2
20260502005811 15 68 4.8 17.7 0.36 7.04 6.78 95 1010.8
20260502005308 15 51 6.4 20.9 0.30 7.09 6.73 95 1010.8
20260502004805 15 48 6.4 20.9 0.30 7.09 6.71 95 1011.2
20260502004302 15 40 4.8 19.3 0.25 7.04 6.65 95 1011.2
20260502003759 15 56 4.8 19.3 0.25 7.01 6.63 95 1011.2
20260502003256 15 72 3.2 14.5 0.20 6.96 6.58 95 1011.5
20260502002752 15 52 4.8 19.3 0.20 6.93 6.55 95 1011.5
20260502002147 15 33 6.4 20.9 0.18 6.91 6.53 95 1010.8
20260502001644 15 41 4.8 20.9 0.15 6.88 6.50 95 1010.8
20260502001108 15 42 8.0 22.5 0.13 6.86 6.48 95 1010.5
20260502000402 15 60 8.0 22.5 0.10 6.83 6.45 95 1010.8
20260501235857 16 36 4.8 22.5 0.13 6.83 6.45 95 1010.8
20260501235353 16 51 4.8 17.7 0.13 6.81 6.43 95 1011.2
20260501234850 16 65 4.8 17.7 0.10 6.78 6.40 95 1010.8
20260501234347 16 72 4.8 17.7 0.13 6.78 6.40 95 1010.8
20260501233843 16 37 6.4 17.7 0.13 6.78 6.38 95 1010.5
20260501233340 16 53 6.4 19.3 0.18 6.78 6.38 95 1010.2
20260501232806 16 56 8.0 24.1 0.18 6.76 6.35 95 1009.5
20260501232305 16 27 8.0 24.1 0.20 6.76 6.35 95 1010.2
20260501231800 16 37 9.7 24.1 0.25 6.76 6.35 95 1010.2
20260501231257 16 49 8.0 24.1 0.30 6.76 6.35 95 1009.8
20260501230754 16 49 6.4 22.5 0.36 6.76 6.35 95 1009.8
20260501230251 16 48 4.8 22.5 0.41 6.76 6.35 95 1009.8
20260501225748 16 69 6.4 19.3 0.43 6.73 6.32 95 1010.2
20260501225214 16 45 4.8 19.3 0.48 6.71 6.30 95 1010.5
20260501224711 16 39 8.0 19.3 0.53 6.68 6.27 95 1010.5
20260501224208 16 60 6.4 19.3 0.56 6.65 6.25 95 1010.5
20260501223705 16 62 6.4 20.9 0.61 6.63 6.22 95 1010.2
20260501223201 16 63 4.8 20.9 0.66 6.60 6.20 95 1010.5
20260501222659 16 47 6.4 20.9 0.74 6.58 6.17 95 1010.8
20260501222155 16 56 6.4 20.9 0.76 6.53 6.12 95 1010.8
20260501221652 16 41 4.8 22.5 0.79 6.48 6.07 95 1010.8
20260501221149 16 59 6.4 22.5 0.84 6.45 6.05 95 1010.8
20260501220645 16 45 8.0 19.3 0.89 6.40 5.99 95 1010.8
20260501220127 16 60 6.4 17.7 0.91 6.32 5.92 95 1010.8
20260501215557 17 50 3.2 14.5 0.97 6.27 5.87 95 1010.8
20260501215054 16 40 3.2 17.7 0.99 6.20 5.79 95 1010.8
20260501214550 16 32 3.2 17.7 1.04 6.15 5.74 95 1010.8
20260501214047 16 52 4.8 17.7 1.09 6.07 5.66 95 1010.5
20260501213544 17 60 4.8 20.9 1.14 5.99 5.59 95 1009.8
20260501213040 17 50 8.0 20.9 1.19 5.92 5.51 95 1009.1
20260501212538 17 40 8.0 20.9 1.24 5.84 5.44 95 1009.8
20260501212035 17 80 4.8 20.9 1.30 5.74 5.33 95 1010.8
20260501211501 17 45 6.4 20.9 1.37 5.66 5.26 95 1010.5
20260501210958 17 28 6.4 16.1 1.40 5.56 5.16 95 1010.2
20260501210455 17 68 4.8 19.3 1.45 5.49 5.08 95 1010.2
20260501205952 17 38 4.8 19.3 1.50 5.38 4.98 95 1010.5
20260501205450 17 54 8.0 20.9 1.55 5.28 4.88 95 1010.2
20260501204947 17 48 6.4 20.9 1.57 5.18 4.78 95 1010.2
20260501204444 17 34 3.2 20.9 1.52 5.08 4.67 95 1009.8
20260501203941 17 59 6.4 20.9 1.42 4.95 4.55 95 1009.8
20260501203438 17 15 6.4 20.9 1.30 4.80 4.39 95 1009.1
20260501202832 17 58 6.4 17.7 1.12 4.62 4.22 95 1008.5
20260501202156 17 40 4.8 19.3 1.02 4.50 4.09 95 1009.5
20260501201653 17 85 6.4 19.3 0.89 4.34 3.94 95 1009.5
20260501201150 17 21 3.2 20.9 0.74 4.19 3.78 95 1009.1
20260501200615 17 41 4.8 20.9 0.61 4.06 3.66 95 1008.5
20260501200112 17 48 6.4 19.3 0.46 3.91 3.51 95 1008.5
20260501195534 17 42 8.0 19.3 0.30 3.76 3.35 95 1008.8
20260501195031 17 60 4.8 14.5 0.18 3.63 3.23 95 1008.8
20260501194528 17 53 1.6 24.1 0.10 3.56 3.15 95 1010.5
20260501194025 17 51 1.6 24.1 0.08 3.53 3.12 95 1009.8
20260501193523 17 34 3.2 24.1 0.08 3.53 3.12 95 1008.5
20260501193020 17 57 8.0 24.1 0.05 3.51 3.10 95 1008.1
20260501192517 17 63 8.0 24.1 0.05 3.51 3.10 95 1008.8
20260501192014 17 65 8.0 24.1 0.00 3.45 3.07 95 1008.8
20260501191511 17 54 6.4 20.9 0.03 3.45 3.05 95 1009.5
20260501191008 17 42 6.4 16.1 0.05 3.45 3.05 95 1010.2
20260501190504 17 41 3.2 14.5 0.08 3.45 3.05 95 1010.2